Terminal Aerodrome Forecast
Issued by NWS

Home | Current Version | Previous Version | Text Only | Print | Product List | Glossary On
Versions: 1 2 3 4 5 6 7 8 9 10 11 12 13 14 15 16 17 18 19 20 21 22 23 24 25 26 27 28 29 30 31 32 33 34 35 36 37 38 39 40 41 42 43 44 45 46
000
FTUS43 KMKX 271136
TAFUES
TAF
KUES 271136Z 2712/2812 18006KT 6SM BR VCSH SCT008 OVC015
     FM271400 21011G19KT 3SM -SHRA BR OVC008
     FM271600 23014G27KT 5SM BR OVC015
     FM272300 29013KT P6SM OVC025
     FM280400 29007KT P6SM SCT025=

USA.gov is the U.S. government's official web portal to all federal, state and local government web resources and services.